Time,TemperatureF,DewpointF,PressureIn,WindDirection,WindDirectionDegrees,WindSpeedMPH,WindSpeedGustMPH,Humidity,HourlyPrecipIn,Conditions,Clouds,dailyrainin,SoftwareType,DateUTC
2013-06-23 00:00:00,62.9,62.0,30.15,SE,135,0.0,0.0,97,0.01,,---,0.00,VWS V14.01,2013-06-23 04:00:00,
2013-06-23 00:15:00,63.0,62.1,30.15,SE,135,0.0,1.0,97,0.01,,---,0.00,VWS V14.01,2013-06-23 04:15:00,
2013-06-23 00:30:00,63.0,62.1,30.15,SE,135,0.0,0.0,97,0.01,,---,0.01,VWS V14.01,2013-06-23 04:30:00,
2013-06-23 00:45:00,63.1,62.2,30.14,SE,135,0.0,0.0,97,0.01,,---,0.01,VWS V14.01,2013-06-23 04:45:00,
2013-06-23 01:00:00,63.0,62.1,30.14,SE,135,0.0,0.0,97,0.01,,---,0.01,VWS V14.01,2013-06-23 05:00:00,
2013-06-23 01:15:00,62.8,61.9,30.13,SE,135,0.0,0.0,97,0.03,,---,0.03,VWS V14.01,2013-06-23 05:15:00,
2013-06-23 01:30:00,62.6,61.7,30.13,SE,135,0.0,0.0,97,0.03,,---,0.03,VWS V14.01,2013-06-23 05:30:00,
2013-06-23 01:45:00,62.7,62.1,30.14,SE,135,0.0,0.0,98,0.02,,---,0.03,VWS V14.01,2013-06-23 05:45:00,
2013-06-23 02:00:00,62.6,61.7,30.13,SE,135,0.0,0.0,97,0.02,,---,0.03,VWS V14.01,2013-06-23 06:00:00,
2013-06-23 02:15:00,62.3,61.4,30.13,SE,135,0.0,0.0,97,0.02,,---,0.03,VWS V14.01,2013-06-23 06:15:00,
2013-06-23 02:30:00,62.1,61.2,30.13,SE,135,0.0,0.0,97,0.00,,---,0.03,VWS V14.01,2013-06-23 06:30:00,
2013-06-23 02:45:00,62.2,61.3,30.13,SE,135,0.0,0.0,97,0.00,,---,0.03,VWS V14.01,2013-06-23 06:45:00,
2013-06-23 03:00:00,62.1,61.5,30.12,SE,135,0.0,0.0,98,0.00,,---,0.03,VWS V14.01,2013-06-23 07:00:00,
2013-06-23 03:15:00,62.1,61.5,30.12,SE,135,0.0,0.0,98,0.00,,---,0.03,VWS V14.01,2013-06-23 07:15:00,
2013-06-23 03:30:00,62.1,61.5,30.11,SE,135,0.0,0.0,98,0.00,,---,0.03,VWS V14.01,2013-06-23 07:30:00,
2013-06-23 03:45:00,62.2,61.6,30.11,ENE,68,0.0,3.0,98,0.03,,---,0.06,VWS V14.01,2013-06-23 07:45:00,
2013-06-23 04:00:00,62.1,61.5,30.10,ENE,68,0.0,0.0,98,0.05,,---,0.08,VWS V14.01,2013-06-23 08:00:00,
2013-06-23 04:15:00,62.0,61.4,30.10,ENE,68,0.0,0.0,98,0.05,,---,0.08,VWS V14.01,2013-06-23 08:15:00,
2013-06-23 04:30:00,61.9,61.3,30.10,ENE,68,0.0,0.0,98,0.05,,---,0.08,VWS V14.01,2013-06-23 08:30:00,
2013-06-23 04:45:00,62.0,61.4,30.11,ENE,68,0.0,0.0,98,0.05,,---,0.08,VWS V14.01,2013-06-23 08:45:00,
2013-06-23 05:00:00,62.1,61.5,30.10,NW,315,0.0,2.0,98,0.05,,---,0.11,VWS V14.01,2013-06-23 09:00:00,
2013-06-23 05:15:00,62.2,61.6,30.10,West,270,0.0,3.0,98,0.04,,---,0.12,VWS V14.01,2013-06-23 09:15:00,
2013-06-23 05:30:00,62.2,61.6,30.10,West,270,0.0,0.0,98,0.04,,---,0.12,VWS V14.01,2013-06-23 09:30:00,
2013-06-23 05:45:00,62.2,61.6,30.10,West,270,0.0,0.0,98,0.04,,---,0.12,VWS V14.01,2013-06-23 09:45:00,
2013-06-23 06:00:00,62.5,61.9,30.09,East,90,0.0,3.0,98,0.04,,---,0.12,VWS V14.01,2013-06-23 10:00:00,
2013-06-23 06:15:00,62.5,61.9,30.12,WNW,292,1.0,5.0,98,0.01,,---,0.12,VWS V14.01,2013-06-23 10:15:00,
2013-06-23 06:30:00,62.6,62.0,30.12,WNW,292,0.0,0.0,98,0.00,,---,0.12,VWS V14.01,2013-06-23 10:30:00,
2013-06-23 06:45:00,63.0,62.4,30.12,WNW,292,0.0,0.0,98,0.00,,---,0.12,VWS V14.01,2013-06-23 10:45:00,
2013-06-23 07:00:00,63.7,63.1,30.13,WNW,292,0.0,0.0,98,0.00,,---,0.12,VWS V14.01,2013-06-23 11:00:00,
2013-06-23 07:15:00,63.8,63.2,30.13,WNW,292,0.0,0.0,98,0.00,,---,0.12,VWS V14.01,2013-06-23 11:15:00,
2013-06-23 07:30:00,64.5,63.9,30.12,WNW,292,0.0,0.0,98,0.00,,---,0.12,VWS V14.01,2013-06-23 11:30:00,
2013-06-23 07:45:00,65.0,64.4,30.12,WNW,292,0.0,0.0,98,0.00,,---,0.12,VWS V14.01,2013-06-23 11:45:00,
2013-06-23 08:00:00,65.8,65.2,30.12,WNW,292,0.0,0.0,98,0.00,,---,0.12,VWS V14.01,2013-06-23 12:00:00,
2013-06-23 08:15:00,66.7,65.8,30.12,WNW,292,0.0,0.0,97,0.00,,---,0.12,VWS V14.01,2013-06-23 12:15:00,
2013-06-23 08:30:00,67.2,66.0,30.12,North,0,0.0,2.0,96,0.00,,---,0.12,VWS V14.01,2013-06-23 12:30:00,
2013-06-23 08:45:00,67.6,65.8,30.11,North,0,0.0,2.0,94,0.00,,---,0.12,VWS V14.01,2013-06-23 12:45:00,
2013-06-23 09:00:00,68.3,65.9,30.11,NNE,22,0.0,3.0,92,0.00,,---,0.12,VWS V14.01,2013-06-23 13:00:00,
2013-06-23 09:15:00,69.5,66.8,30.11,North,0,0.0,3.0,91,0.00,,---,0.12,VWS V14.01,2013-06-23 13:15:00,
2013-06-23 09:30:00,70.4,67.0,30.10,North,0,0.0,2.0,89,0.00,,---,0.12,VWS V14.01,2013-06-23 13:30:00,
2013-06-23 09:45:00,71.7,68.3,30.09,NNW,338,0.0,2.0,89,0.00,,---,0.12,VWS V14.01,2013-06-23 13:45:00,
2013-06-23 10:00:00,72.5,68.4,30.09,NNW,338,0.0,0.0,87,0.00,,---,0.12,VWS V14.01,2013-06-23 14:00:00,
2013-06-23 10:15:00,73.0,69.2,30.08,South,180,0.0,4.0,88,0.00,,---,0.12,VWS V14.01,2013-06-23 14:15:00,
2013-06-23 10:30:00,73.5,68.7,30.09,West,270,0.0,3.0,85,0.00,,---,0.12,VWS V14.01,2013-06-23 14:30:00,
2013-06-23 10:45:00,74.0,68.9,30.09,SSW,202,0.0,3.0,84,0.00,,---,0.12,VWS V14.01,2013-06-23 14:45:00,
2013-06-23 11:00:00,75.1,71.0,30.08,ENE,68,0.0,2.0,87,0.00,,---,0.12,VWS V14.01,2013-06-23 15:00:00,
2013-06-23 11:15:00,76.4,71.6,30.08,SW,225,0.0,4.0,85,0.00,,---,0.12,VWS V14.01,2013-06-23 15:15:00,
2013-06-23 11:30:00,77.2,71.6,30.07,North,0,0.0,3.0,83,0.00,,---,0.12,VWS V14.01,2013-06-23 15:30:00,
2013-06-23 11:45:00,77.9,71.2,30.07,SW,225,1.0,7.0,80,0.00,,---,0.12,VWS V14.01,2013-06-23 15:45:00,
2013-06-23 12:00:00,79.1,71.3,30.06,NW,315,0.0,3.0,77,0.00,,---,0.12,VWS V14.01,2013-06-23 16:00:00,
2013-06-23 12:15:00,79.9,70.9,30.06,NW,315,1.0,4.0,74,0.00,,---,0.12,VWS V14.01,2013-06-23 16:15:00,
2013-06-23 12:30:00,79.6,72.1,30.05,South,180,0.0,6.0,78,0.00,,---,0.12,VWS V14.01,2013-06-23 16:30:00,
2013-06-23 12:45:00,80.5,71.1,30.05,SSW,202,1.0,7.0,73,0.00,,---,0.12,VWS V14.01,2013-06-23 16:45:00,
2013-06-23 13:00:00,80.9,72.2,30.04,South,180,2.0,9.0,75,0.00,,---,0.12,VWS V14.01,2013-06-23 17:00:00,
2013-06-23 13:15:00,81.4,72.3,30.03,SSW,202,1.0,5.0,74,0.00,,---,0.12,VWS V14.01,2013-06-23 17:15:00,
2013-06-23 13:30:00,81.8,72.3,30.03,South,180,1.0,6.0,73,0.00,,---,0.12,VWS V14.01,2013-06-23 17:30:00,
2013-06-23 13:45:00,81.8,71.9,30.02,South,180,1.0,4.0,72,0.00,,---,0.12,VWS V14.01,2013-06-23 17:45:00,
2013-06-23 14:00:00,81.4,73.9,30.01,South,180,0.0,4.0,78,0.00,,---,0.12,VWS V14.01,2013-06-23 18:00:00,
2013-06-23 14:15:00,79.4,73.1,30.01,South,180,0.0,0.0,81,0.00,,---,0.12,VWS V14.01,2013-06-23 18:15:00,
2013-06-23 14:30:00,77.7,71.4,30.02,NE,45,2.0,11.0,81,0.00,,---,0.12,VWS V14.01,2013-06-23 18:30:00,
2013-06-23 14:45:00,76.5,70.2,30.00,NE,45,5.0,13.0,81,0.00,,---,0.12,VWS V14.01,2013-06-23 18:45:00,
2013-06-23 15:00:00,75.9,70.4,30.00,SSW,202,1.0,4.0,83,0.00,,---,0.12,VWS V14.01,2013-06-23 19:00:00,
2013-06-23 15:15:00,73.5,69.7,30.00,NE,45,0.0,3.0,88,0.28,,---,0.40,VWS V14.01,2013-06-23 19:15:00,
2013-06-23 15:30:00,73.4,71.3,30.00,NNE,22,0.0,3.0,93,0.29,,---,0.41,VWS V14.01,2013-06-23 19:30:00,
2013-06-23 15:45:00,73.6,71.5,30.00,NNE,22,0.0,4.0,93,0.29,,---,0.41,VWS V14.01,2013-06-23 19:45:00,
2013-06-23 16:00:00,73.2,70.7,30.01,NE,45,1.0,7.0,92,0.29,,---,0.41,VWS V14.01,2013-06-23 20:00:00,
2013-06-23 16:15:00,72.3,69.8,30.02,North,0,1.0,5.0,92,0.29,,---,0.41,VWS V14.01,2013-06-23 20:15:00,
2013-06-23 16:30:00,71.5,69.4,30.01,NE,45,0.0,2.0,93,0.03,,---,0.43,VWS V14.01,2013-06-23 20:30:00,
2013-06-23 16:45:00,69.4,66.0,30.01,East,90,1.0,8.0,89,0.29,,---,0.70,VWS V14.01,2013-06-23 20:45:00,
2013-06-23 17:00:00,67.6,65.2,30.03,ENE,68,2.0,6.0,92,0.31,,---,0.72,VWS V14.01,2013-06-23 21:00:00,
2013-06-23 17:15:00,67.5,65.4,30.00,East,90,1.0,7.0,93,0.35,,---,0.76,VWS V14.01,2013-06-23 21:15:00,
2013-06-23 17:30:00,68.6,67.4,29.98,NE,45,0.0,4.0,96,0.37,,---,0.78,VWS V14.01,2013-06-23 21:30:00,
2013-06-23 17:45:00,71.2,68.4,29.99,SW,225,0.0,3.0,91,0.35,,---,0.78,VWS V14.01,2013-06-23 21:45:00,
2013-06-23 18:00:00,70.6,66.9,29.99,ENE,68,1.0,6.0,88,0.08,,---,0.78,VWS V14.01,2013-06-23 22:00:00,
2013-06-23 18:15:00,69.7,66.6,30.01,South,180,1.0,4.0,90,0.06,,---,0.78,VWS V14.01,2013-06-23 22:15:00,
2013-06-23 18:30:00,69.0,65.9,30.01,WSW,248,1.0,5.0,90,0.02,,---,0.78,VWS V14.01,2013-06-23 22:30:00,
2013-06-23 18:45:00,68.9,66.8,30.00,NNE,22,0.0,1.0,93,0.00,,---,0.78,VWS V14.01,2013-06-23 22:45:00,
2013-06-23 19:00:00,68.8,67.0,30.00,NNE,22,0.0,0.0,94,0.00,,---,0.78,VWS V14.01,2013-06-23 23:00:00,
2013-06-23 19:15:00,68.9,67.4,29.99,NNE,22,0.0,0.0,95,0.00,,---,0.78,VWS V14.01,2013-06-23 23:15:00,
2013-06-23 19:30:00,68.8,67.3,30.01,NE,45,0.0,1.0,95,0.00,,---,0.78,VWS V14.01,2013-06-23 23:30:00,
2013-06-23 19:45:00,68.4,66.9,30.00,NE,45,0.0,0.0,95,0.00,,---,0.78,VWS V14.01,2013-06-23 23:45:00,
2013-06-23 20:00:00,68.0,66.5,30.00,NE,45,0.0,1.0,95,0.00,,---,0.78,VWS V14.01,2013-06-24 00:00:00,
2013-06-23 20:15:00,67.4,65.9,30.00,NE,45,0.0,0.0,95,0.00,,---,0.78,VWS V14.01,2013-06-24 00:15:00,
2013-06-23 20:30:00,67.1,65.9,30.01,NE,45,0.0,0.0,96,0.00,,---,0.78,VWS V14.01,2013-06-24 00:30:00,
2013-06-23 20:45:00,67.4,66.2,30.02,NE,45,2.0,5.0,96,0.00,,---,0.78,VWS V14.01,2013-06-24 00:45:00,
2013-06-23 21:00:00,67.4,65.9,30.01,South,180,1.0,4.0,95,0.00,,---,0.78,VWS V14.01,2013-06-24 01:00:00,
2013-06-23 21:15:00,67.0,65.8,30.00,East,90,0.0,2.0,96,0.00,,---,0.78,VWS V14.01,2013-06-24 01:15:00,
2013-06-23 21:30:00,66.9,65.7,30.01,ENE,68,0.0,1.0,96,0.00,,---,0.78,VWS V14.01,2013-06-24 01:30:00,
2013-06-23 21:45:00,67.0,65.8,30.02,North,0,0.0,2.0,96,0.00,,---,0.78,VWS V14.01,2013-06-24 01:45:00,
2013-06-23 22:00:00,66.4,65.2,30.03,North,0,0.0,1.0,96,0.00,,---,0.78,VWS V14.01,2013-06-24 02:00:00,
2013-06-23 22:15:00,66.4,65.5,30.03,North,0,0.0,0.0,97,0.00,,---,0.78,VWS V14.01,2013-06-24 02:15:00,
2013-06-23 22:30:00,66.2,65.0,30.03,North,0,0.0,0.0,96,0.00,,---,0.78,VWS V14.01,2013-06-24 02:30:00,
2013-06-23 22:45:00,66.0,65.1,30.02,North,0,0.0,0.0,97,0.01,,---,0.79,VWS V14.01,2013-06-24 02:45:00,
2013-06-23 23:00:00,66.1,65.2,30.02,North,0,0.0,0.0,97,0.01,,---,0.79,VWS V14.01,2013-06-24 03:00:00,
2013-06-23 23:15:00,65.8,64.9,30.02,North,0,0.0,0.0,97,0.01,,---,0.79,VWS V14.01,2013-06-24 03:15:00,
2013-06-23 23:30:00,65.4,64.5,30.01,North,0,0.0,0.0,97,0.01,,---,0.79,VWS V14.01,2013-06-24 03:30:00,
2013-06-23 23:45:00,65.1,64.2,30.00,North,0,0.0,0.0,97,0.01,,---,0.79,VWS V14.01,2013-06-24 03:45:00,